Tracking 31027 objects as of 19-Jul-2025
HD Live streaming from Space Station
objects crossing your sky now

COSMOS 1275 DEB

Track COSMOS 1275 DEB now!
10-day predictions


NORAD ID: 17626
Int'l Code: 1981-053KY
Perigee: 921.4 km
Apogee: 1,135.4 km
Inclination: 82.9 °
Period: 105.6 minutes
Semi major axis: 7399 km
RCS: 0.0074 m2 (small)
Launch date: June 4, 1981
Source: Commonwealth of Independent States (former USSR) (CIS)
Launch site: PLESETSK MISSILE AND SPACE COMPLEX (PKMTR)

Note: This is SATELLITE DEBRIS
Your satellite tracking list
CZ-4C DEB
Track 1 satellite(s)




NASA's NSSDC Master Catalog

Two Line Element Set (TLE):
1 17626U 81053KV  25198.54493991  .00000599  00000-0  68345-3 0  9990
2 17626  82.8675  39.7787 0144623  94.9158 295.9811 13.63979100994036
Source of the keplerian elements: AFSPC